Theta_e
354 350 345 347 348 351 349 345 340 336 335 331 328 325 329 330 331 332 332 331 334 330 333 338 340 343 341 337 335 333 329 324 323 322 322 322 322 322 324 340 346 347 341
350 347 345 347 349 350 347 344 339 336 337 330 327 327 328 329 330 332 334 333 332 335 337 341 343 340 339 338 337 332 323 323 323 323 322 324 326 325 325 324 339 339 344
350 344 344 347 349 349 347 343 338 337 338 331 327 329 329 337 340 335 335 335 336 340 342 344 343 340 339 336 331 327 323 323 325 330 333 342 336 331 331 334 330 327 326
349 344 344 346 347 348 346 343 339 339 339 332 329 330 331 343 346 335 337 340 341 341 342 341 339 338 340 334 327 323 323 324 325 335 343 348 348 341 344 345 342 341 341
347 344 343 343 344 345 345 344 340 341 339 332 329 329 332 341 343 343 344 344 342 341 339 340 341 337 328 325 324 324 323 324 324 330 346 349 349 348 347 346 341 342 342
348 345 342 342 341 341 343 344 342 342 339 332 330 330 331 338 347 348 348 345 344 342 340 336 328 326 326 325 325 325 325 324 332 337 345 348 349 346 346 345 340 340 340
352 348 343 342 340 339 341 343 343 343 340 333 331 330 331 336 343 349 348 344 341 340 337 332 333 332 330 328 326 326 326 325 325 329 348 346 349 348 347 345 342 340 336
354 351 344 342 340 339 340 342 344 343 339 334 332 331 331 336 341 347 345 340 338 336 336 335 333 331 329 327 326 326 326 325 333 338 342 344 348 347 346 343 338 334 333
356 354 345 344 341 340 341 343 344 343 339 335 334 333 332 335 339 340 340 339 336 336 335 333 333 332 329 329 327 324 324 326 328 333 332 339 345 346 344 338 334 336 335
358 356 345 344 346 346 343 343 344 342 339 337 336 334 333 334 336 337 337 337 335 335 334 333 331 330 329 327 323 323 324 323 323 325 335 337 341 343 338 334 340 341 339
358 355 347 343 345 349 344 344 344 342 339 340 338 335 333 332 334 335 336 335 333 331 330 332 330 328 324 323 322 331 330 334 330 332 333 333 337 340 335 341 342 342 342
355 352 349 343 346 347 348 343 343 342 340 340 337 335 332 329 328 330 333 338 340 336 331 329 327 324 324 329 337 338 338 339 338 336 335 335 341 335 343 343 343 343 342
354 352 350 344 346 346 341 341 343 340 339 336 333 330 332 339 330 343 340 338 338 334 327 326 335 331 338 340 341 339 339 339 340 342 342 341 338 343 344 343 343 342 338
354 352 351 346 346 346 341 337 336 338 334 336 334 326 337 341 338 341 341 342 338 334 337 338 339 340 341 341 340 340 341 342 345 346 345 344 343 343 344 343 338 337 336
355 352 351 346 344 344 343 336 335 338 335 340 340 328 336 341 339 342 345 346 340 339 340 337 339 341 341 340 342 344 348 347 346 347 343 344 343 342 338 337 337 337 336
356 353 350 346 345 344 343 340 341 339 339 342 341 333 339 345 343 344 341 343 342 341 340 340 340 343 341 343 350 348 348 345 341 337 337 342 341 336 337 338 337 336 335
357 354 351 347 349 346 344 343 343 342 341 345 343 343 342 341 345 341 340 341 340 339 338 342 346 345 349 348 346 345 340 338 336 329 338 340 337 337 338 337 336 334 336
357 353 352 350 352 348 346 345 346 345 345 347 346 342 346 342 345 341 340 340 339 340 338 344 349 350 347 344 341 341 338 336 330 336 340 338 336 336 334 330 330 330 322
355 355 353 352 357 349 347 347 348 346 347 350 349 347 345 342 344 339 340 340 343 349 349 349 349 346 344 341 338 334 332 332 333 337 336 336 334 331 327 324 319 318 319
357 356 352 346 353 352 348 352 351 349 348 349 349 347 345 343 344 337 347 349 347 347 347 346 344 340 337 332 332 332 332 332 336 334 332 333 331 328 320 318 319 320 319
360 358 352 342 353 356 355 351 354 350 350 350 349 348 345 344 344 342 352 351 350 348 346 345 341 340 338 334 334 334 334 333 336 335 332 327 319 317 319 321 320 319 321
357 360 358 358 356 355 354 352 351 349 351 349 349 348 346 345 344 342 349 347 344 341 341 340 336 336 336 337 337 337 333 335 335 331 328 317 319 320 321 319 318 317 317
356 358 358 357 355 355 352 353 353 349 351 351 349 348 348 347 347 345 348 344 343 342 338 335 337 336 337 336 334 335 332 333 331 333 325 319 321 320 319 316 318 318 319
345 359 356 357 355 354 352 353 351 350 351 351 351 351 349 349 347 347 345 342 340 334 334 337 336 335 334 330 331 324 324 322 324 320 320 321 320 319 316 318 319 319 317
338 359 357 356 355 353 353 352 349 350 352 351 351 349 349 348 347 344 340 337 334 337 335 334 333 331 328 323 322 322 320 319 321 318 316 319 319 318 318 319 318 316 315
342 358 357 357 356 354 353 351 350 351 351 351 349 348 345 342 340 338 336 336 335 335 332 330 325 323 321 319 320 322 322 320 320 319 316 316 317 318 317 317 317 316 315
Wind_Speed
25 29 25 26 28 27 25 22 20 19 18 16 17 18 19 21 22 22 23 22 21 20 19 16 13 10 8 8 8 7 6 5 5 6 6 7 9 8 8 8 9 4 5
38 31 27 26 27 26 24 23 21 20 18 17 17 18 20 21 22 22 21 20 19 19 16 13 10 9 8 7 6 6 6 6 6 5 6 8 9 9 8 6 4 6 4
38 33 28 27 27 25 23 22 20 20 18 17 17 18 20 21 20 20 19 18 17 15 13 11 9 7 6 6 5 4 5 5 5 4 4 4 4 8 9 9 7 6 6
40 34 31 28 26 24 22 21 20 19 18 17 17 17 20 20 18 19 18 15 14 13 11 9 6 5 4 4 4 3 3 3 2 1 1 1 3 1 6 8 8 7 7
40 33 32 29 26 24 21 20 20 19 18 18 17 17 19 19 18 18 15 13 12 10 9 7 5 4 3 3 3 2 2 1 1 2 4 9 5 15 1 6 7 8 9
37 33 31 28 25 22 22 20 21 19 17 17 17 17 18 18 16 18 14 13 11 9 7 5 4 4 3 2 1 1 1 2 3 4 8 12 10 7 2 4 5 8 9
33 32 29 27 25 23 21 21 20 19 18 17 16 16 17 18 18 16 13 11 10 8 6 5 3 2 2 2 2 2 3 3 5 6 8 12 5 7 3 4 5 9 12
36 32 29 25 25 23 23 22 21 20 18 18 16 15 16 17 17 16 12 9 8 7 5 3 2 1 1 2 3 3 4 4 6 8 8 9 5 8 7 5 7 11 13
33 33 30 25 24 24 23 22 21 19 18 17 16 15 15 16 16 14 12 9 7 6 4 2 2 2 2 3 4 4 5 5 7 7 8 6 7 9 8 6 8 11 13
34 32 33 27 23 24 24 21 21 20 18 16 15 15 15 15 15 14 12 9 7 5 4 4 4 4 5 5 4 5 6 7 8 8 7 9 12 12 8 6 10 13 14
33 34 36 30 24 23 25 22 20 19 18 16 15 16 16 16 16 14 11 8 6 5 5 5 6 6 6 5 5 4 7 7 5 8 12 14 17 14 7 10 12 11 12
30 32 38 35 29 25 25 25 22 20 20 18 17 17 17 15 16 14 11 9 8 7 7 6 6 6 5 4 4 9 11 9 10 13 17 21 15 9 10 11 10 10 12
35 32 35 38 33 29 28 27 23 22 21 17 17 18 19 15 15 12 12 11 10 9 9 8 6 6 3 4 4 5 8 10 13 13 8 4 5 7 10 10 8 11 13
38 38 39 37 36 30 28 29 24 21 20 18 17 20 23 20 16 16 17 11 9 9 7 8 9 7 6 7 9 11 13 13 3 14 18 14 12 12 10 9 12 12 11
37 40 42 41 38 31 30 30 25 23 20 20 18 20 20 18 19 19 15 15 10 9 10 10 11 10 11 10 12 12 6 4 5 7 12 12 13 4 7 10 10 11 12
42 46 50 48 44 37 32 29 29 26 22 21 19 20 18 15 18 15 15 9 12 12 8 15 13 12 10 9 4 5 5 7 7 8 14 21 7 14 15 11 11 11 18
33 34 43 47 44 42 35 30 28 27 27 25 23 21 18 17 16 14 15 8 10 6 8 5 5 3 4 8 7 5 4 7 8 17 17 7 11 13 15 16 17 20 19
40 37 45 49 46 41 36 32 28 27 28 29 25 22 18 18 16 15 12 10 10 13 12 6 1 4 5 5 8 8 5 10 14 23 13 13 14 14 17 18 17 14 18
48 46 31 42 33 44 37 29 31 31 27 26 27 24 22 19 16 15 13 12 9 7 6 2 3 2 3 4 8 9 8 8 12 9 9 9 14 18 21 22 22 22 20
33 48 33 40 42 41 46 41 32 32 25 25 28 25 25 20 15 15 7 11 7 6 8 7 7 5 7 10 12 12 14 9 7 10 14 14 19 23 24 24 22 21 24
23 36 46 39 37 44 37 38 30 29 30 27 31 25 23 19 15 13 5 7 4 4 4 3 5 6 9 13 13 17 14 9 4 13 15 20 25 24 19 19 22 23 23
30 27 28 35 38 31 37 29 30 29 20 28 29 26 22 17 13 11 6 7 7 5 4 5 8 8 9 12 6 4 4 7 8 11 14 24 26 21 17 27 22 24 23
32 35 33 27 38 25 40 31 25 28 23 24 29 23 17 16 13 8 16 14 9 6 7 10 11 10 9 11 16 6 3 2 7 5 8 21 23 21 27 23 25 23 24
29 39 41 36 29 27 34 33 30 27 21 25 30 25 21 15 13 14 14 11 10 11 15 11 9 11 9 14 6 12 10 6 1 4 7 22 21 26 26 28 27 23 21
28 35 40 41 41 41 44 36 38 17 29 32 30 25 23 21 17 13 12 14 17 15 14 11 10 11 12 13 13 9 8 10 10 1 4 13 21 22 25 25 20 18 29
29 36 41 44 40 42 42 42 33 28 38 32 33 32 26 22 19 16 16 18 17 15 11 12 13 13 13 15 14 14 18 7 7 6 2 5 13 20 25 24 23 24 27
Wind_Direction
150 153 157 150 146 144 143 143 139 134 126 123 122 122 122 120 119 120 122 125 125 125 126 127 124 114 98 87 85 86 82 76 80 80 87 88 79 76 82 82 51 57 15
158 158 156 150 148 148 146 145 143 136 129 125 125 125 124 121 120 121 122 122 123 125 126 125 121 106 90 83 78 74 77 82 84 91 100 92 89 76 65 56 36 30 339
159 156 156 152 150 150 148 146 144 139 132 130 129 130 128 124 118 121 121 122 123 123 123 122 120 105 85 72 70 70 69 79 82 90 113 96 58 68 71 46 22 356 346
158 157 157 154 154 152 151 150 148 143 137 135 134 133 134 129 121 123 122 122 124 125 123 121 119 106 86 70 66 66 61 58 85 143 72 348 246 253 55 22 8 357 343
156 160 157 156 155 155 152 154 152 148 143 142 141 139 140 138 130 126 123 124 124 124 125 125 120 106 85 77 72 57 55 42 259 300 351 346 278 215 50 6 6 352 331
157 162 158 157 154 156 158 158 156 151 148 148 147 146 146 145 137 132 133 129 127 127 127 127 121 108 93 70 49 3 334 302 284 307 331 339 241 214 267 326 3 353 338
158 161 160 159 156 157 160 159 159 156 155 154 153 151 153 152 147 144 142 137 133 135 136 136 124 97 66 31 345 323 314 291 277 286 314 343 254 245 242 315 337 335 329
160 160 161 163 160 157 159 160 160 159 159 157 158 157 158 159 156 154 153 149 143 143 144 146 136 104 18 335 312 305 299 290 283 287 313 345 210 206 252 267 315 325 322
161 157 163 163 161 159 161 160 160 161 160 160 160 162 160 165 166 164 163 162 155 156 155 173 227 264 283 285 291 293 287 290 287 290 294 301 279 233 232 255 317 329 324
156 159 164 162 161 158 158 161 163 161 162 163 165 164 163 169 171 170 172 171 171 181 203 231 251 258 269 273 275 275 282 278 276 264 258 266 263 236 240 285 326 327 326
151 161 166 164 163 160 156 160 165 164 164 166 169 169 167 171 175 175 177 175 195 221 234 238 250 260 265 264 248 268 281 294 276 255 271 282 265 231 252 311 312 321 325
150 154 164 163 161 164 160 162 168 169 169 172 174 175 170 173 177 176 183 201 217 235 237 239 247 252 258 259 273 276 272 285 277 281 294 291 220 233 295 296 316 319 338
153 151 165 163 162 166 169 163 171 171 169 173 179 176 167 165 176 174 194 209 224 232 236 227 238 235 233 268 280 297 282 282 292 308 327 338 256 268 296 316 327 335 330
156 161 166 164 163 171 166 167 172 173 169 174 180 177 172 185 177 197 204 211 207 199 217 214 242 248 242 257 267 256 269 290 307 353 345 333 318 309 316 324 341 327 328
161 163 165 165 165 172 164 168 168 175 171 179 182 184 177 190 190 196 208 220 213 219 230 238 243 248 239 259 281 278 292 38 7 327 348 343 336 0 350 346 333 325 334
170 165 165 163 168 173 172 167 171 174 175 182 188 188 185 186 187 200 205 196 212 232 260 246 260 240 250 296 30 76 44 29 9 3 334 333 357 357 356 4 343 332 342
180 160 157 162 164 166 170 171 173 176 177 185 192 196 187 192 195 205 208 221 213 231 243 264 261 281 69 72 65 53 39 9 61 346 343 19 10 32 30 25 9 359 356
152 160 164 161 161 160 165 171 175 176 180 185 189 186 188 197 202 195 200 216 209 250 244 252 104 105 59 38 22 16 344 357 349 345 21 50 28 25 21 17 9 17 2
145 160 148 157 151 156 159 167 184 181 181 186 187 187 189 198 197 203 199 226 222 148 129 102 74 65 45 349 353 346 338 312 336 37 29 16 14 13 11 4 360 356 356
173 153 178 163 175 163 166 166 176 176 178 184 185 189 193 195 196 185 180 154 145 113 79 71 64 48 39 9 347 327 315 317 344 13 30 28 11 6 357 357 5 5 354
174 158 178 181 180 164 161 155 169 174 185 188 185 187 186 188 193 194 156 178 149 62 47 60 73 23 0 353 341 341 339 301 71 22 36 22 11 6 10 16 5 356 354
167 179 184 164 168 172 153 161 174 173 180 168 177 179 178 179 187 188 142 134 91 102 105 45 52 51 39 27 3 345 340 25 336 8 22 17 9 4 21 0 1 3 3
170 173 188 196 166 164 160 168 167 175 161 150 159 160 161 168 164 160 132 124 120 122 82 92 77 71 66 68 63 70 20 350 339 319 359 11 6 10 357 4 2 4 3
177 171 178 185 184 173 177 179 174 183 151 150 148 143 145 152 142 143 139 137 112 112 105 94 88 78 78 49 55 41 60 20 309 325 325 357 357 357 360 5 7 8 3
180 164 164 172 178 186 192 179 172 183 146 144 141 132 130 127 135 136 132 117 112 113 115 106 87 78 72 70 56 31 32 15 31 79 307 342 345 351 353 2 17 9 360
172 162 164 170 178 189 192 178 177 150 141 134 136 129 131 130 127 130 128 125 121 120 112 96 86 80 70 64 59 50 36 33 9 27 321 315 323 342 348 352 2 352 357